Volver al catálogo

STARLINK-32029

ActivoComunicacionesVLEO
NORAD 60145·PAYLOAD·🇺🇸 United States

Lanzado Jun 27, 2024 desde Cape Canaveral Space Force Station

Loading…

Próximos Pases (próximas 24 horas)

TLE

ActualizadoSource: CelesTrak SupGP

Época: Sep 14, 2026, 21:45 UTC

1 60145C 24120L   26257.90673611 -.00029605  00000+0 -87424-3 0  2578
2 60145  53.1579 157.6801 0001108  88.5093 264.3665 15.34421497    12

Sigue STARLINK-32029 en tiempo real con AllMySat

Download on the App Store